Challis, ID

7:57 AM MDT on August 17, 2017 (GMT -0600)
Challis

Weather History for KLLJ - July, 2013

Change the Weather History Date:

Wednesday, July 3, 2013

  Actual Average Record
Temperature  
Mean Temperature 72 °F 66 °F  
Max Temperature 90 °F 82 °F 97 °F (1967)
Min Temperature 54 °F 49 °F 38 °F (1966)
Degree Days  
Heating Degree Days 0 2  
Month to date heating degree days 0 6  
Since 1 June heating degree days 121 171  
Since 1 July heating degree days 0 6  
Cooling Degree Days 7 2  
Month to date cooling degree days 34 6  
Year to date cooling degree days 99 30  
Since 1 June cooling degree days 97 28  
Growing Degree Days 23 (Base 50)    
Moisture  
Dew Point 54 °F    
Average Humidity 57    
Maximum Humidity 90    
Minimum Humidity 24    
Precipitation  
Precipitation 0.23 in 0.04 in 0.42 in (1980)
Month to date precipitation 0.27 0.11  
Year to date precipitation 2.01 5.88  
Sea Level Pressure  
Sea Level Pressure 30.01 in    
Wind  
Wind Speed 3 mph (NNW)    
Max Wind Speed 12 mph    
Max Gust Speed 15 mph    
Visibility 9 miles    
Events Rain , Thunderstorm    
T = Trace of Precipitation, MM = Missing Value Source: NWS Daily Summary

Daily Weather History Graph

Daily Weather History Graph

Search for Another Location

Airport or City:

Trip Planner

Search our weather history database for the weather conditions in past years. The results will help you decide how hot, cold, wet, or windy it might be!

Date:

Astronomy

Jul. 03, 2013 Rise Set
Actual Time 5:57 AM MDT 9:24 PM MDT
Civil Twilight 5:20 AM MDT 10:01 PM MDT
Nautical Twilight 4:32 AM MDT 10:49 PM MDT
Astronomical Twilight 3:31 AM MDT 11:50 PM MDT
Moon 2:42 AM MDT (7/3) 5:35 PM MDT (7/3)
Length of Visible Light 16h 40m
Length of Day
15h 27m
Waning Crescent, 18% of the Moon is Illuminated
Jul 3
Waning Crescent
Jul 8
New
Jul 15
First Quarter
Jul 22
Full
Jul 29
Last Quarter

Hourly Weather History & Observations

Time (MDT) Temp. Heat Index Dew Point Humidity Pressure Visibility Wind Dir Wind Speed Gust Speed Precip Events Conditions
12:55 AM 64.0 °F - 55.9 °F 75% 30.04 in 10.0 mi Calm Calm - N/A   Clear
1:55 AM 62.1 °F - 55.0 °F 78% 30.01 in 10.0 mi Calm Calm - N/A   Clear
2:55 AM 57.9 °F - 53.1 °F 84% 30.01 in 10.0 mi Calm Calm - N/A   Clear
3:55 AM 57.0 °F - 52.0 °F 83% 30.00 in 10.0 mi Calm Calm - N/A   Clear
4:55 AM 57.9 °F - 52.0 °F 81% 30.00 in 10.0 mi Calm Calm - N/A   Clear
5:55 AM 57.0 °F - 52.0 °F 83% 30.04 in 10.0 mi Calm Calm - N/A   Clear
6:55 AM 57.9 °F - 52.0 °F 81% 30.04 in 10.0 mi Calm Calm - N/A   Clear
7:55 AM 61.0 °F - 54.0 °F 78% 30.05 in 10.0 mi Calm Calm - N/A   Clear
8:55 AM 64.9 °F - 52.0 °F 63% 30.06 in 10.0 mi Calm Calm - N/A   Clear
9:55 AM 70.0 °F - 54.0 °F 57% 30.02 in 10.0 mi Calm Calm - N/A   Clear
10:55 AM 73.9 °F - 52.0 °F 46% 29.99 in 10.0 mi NNE 3.5 mph - N/A   Clear
11:55 AM 78.1 °F - 53.1 °F 42% 29.97 in 10.0 mi Calm Calm - N/A   Clear
12:55 PM 82.9 °F 81.9 °F 54.0 °F 37% 29.94 in 10.0 mi Variable 4.6 mph - N/A   Clear
1:55 PM 88.0 °F - 46.9 °F 24% 29.90 in 10.0 mi SSE 4.6 mph - N/A   Clear
2:55 PM 87.1 °F - 46.9 °F 25% 29.88 in 10.0 mi Variable 3.5 mph - N/A   Clear
3:55 PM 88.0 °F - 46.9 °F 24% 29.86 in 10.0 mi West 3.5 mph - N/A   Clear
4:24 PM 89.6 °F - 46.4 °F 22% 30.05 in 10.0 mi SW 6.9 mph - N/A Thunderstorm Thunderstorm
4:55 PM 89.1 °F - 46.9 °F 23% 29.85 in 10.0 mi ENE 4.6 mph - N/A Thunderstorm Mostly Cloudy
5:27 PM 80.6 °F - 48.2 °F 32% 30.10 in 9.0 mi Calm Calm - 0.00 in Rain Light Rain
5:55 PM 75.0 °F - 55.0 °F 50% 29.92 in 10.0 mi SSW 12.7 mph - 0.03 in Thunderstorm Thunderstorm
6:28 PM 71.6 °F - 53.6 °F 53% 30.11 in 1.8 mi West 16.1 mph 26.5 mph 0.00 in Rain , Thunderstorm Light Thunderstorms and Rain
6:41 PM 66.2 °F - 55.4 °F 68% 30.15 in 3.0 mi NNW 12.7 mph 19.6 mph 0.02 in Rain , Thunderstorm Heavy Thunderstorms and Rain
6:55 PM 64.9 °F - 57.0 °F 75% 30.02 in 6.0 mi NNE 8.1 mph 17.3 mph 0.08 in Rain , Thunderstorm Thunderstorms and Rain
7:07 PM - - - N/A% - - North - - 0.06 in   Unknown
7:15 PM 64.4 °F - 57.2 °F 77% 30.16 in - Calm Calm - 0.06 in Rain , Thunderstorm Light Thunderstorms and Rain
7:55 PM 64.0 °F - 59.0 °F 84% 30.02 in 4.0 mi NE 6.9 mph - 0.12 in Rain , Thunderstorm Light Thunderstorms and Rain
8:17 PM 64.4 °F - 59.0 °F 83% 30.16 in 10.0 mi SSW 6.9 mph - 0.00 in   Overcast
8:55 PM 64.0 °F - 59.0 °F 84% 30.01 in 10.0 mi NNE 5.8 mph - 0.00 in Rain Light Rain
9:55 PM 64.9 °F - 59.0 °F 81% 29.99 in 10.0 mi Calm Calm - 0.00 in   Partly Cloudy
10:55 PM 64.0 °F - 59.0 °F 84% 29.99 in 10.0 mi Calm Calm - N/A   Clear
11:55 PM 62.1 °F - 59.0 °F 90% 29.97 in 10.0 mi Calm Calm - N/A   Clear